Regional Weather Roundup
Issued by NWS

Home | Current Version | Previous Version | Graphics & Text | Print | Product List | Glossary On
Versions: 1 2 3 4 5 6 7 8 9 10 11 12 13 14 15 16 17 18 19 20 21 22 23 24 25 26 27 28 29 30 31 32 33 34 35 36 37 38 39 40 41 42 43 44 45 46 47 48 49 50
915
ASUS45 KBOU 241710
RWRCO

WEATHER ROUNDUP FOR COLORADO
NATIONAL WEATHER SERVICE DENVER/BOULDER CO
1000 AM MST SAT FEB 24 2018

NOTE: "FAIR" INDICATES FEW OR NO CLOUDS BELOW 12000 FEET WITH NO
SIGNIFICANT WEATHER AND/OR OBSTRUCTIONS TO VISIBILITY.

COZ001>005-013-030-031-241800-
...NORTHWEST COLORADO...

CITY           SKY/WX    TMP DP  RH WIND       PRES   REMARKS
CRAIG          CLOUDY    13   4  67 CALM      30.01R
HAYDEN         LGT SNOW  21   9  58 CALM      30.00R
MEEKER         FAIR      17   5  59 SW6       30.00S WCI   9
RANGELY        FAIR      22   3  43 W8        30.06S WCI  13
RABBIT EARS PA LGT SNOW   0  -6  78 W16G24    29.71S VSB 3/4 WCI -21
STEAMBOAT SPGS CLOUDY    12   4  69 W3        29.96S
WALDEN         PTSUNNY   12  -6  44 SW17G25   29.82F WCI  -5
$$

COZ006>008-011-241800-
...WEST CENTRAL VALLEYS...

CITY           SKY/WX    TMP DP  RH WIND       PRES   REMARKS
GRAND JUNCTION FAIR      26  12  55 VRB3      30.09S
MONTROSE       FAIR      22   8  55 E7        30.08F WCI  13
EAGLE          CLOUDY    21   6  52 W17       29.98R WCI   7
RIFLE          CLOUDY    21  16  81 W16       30.04S WCI   7
DELTA          FAIR      29   8  41 W9        30.08S WCI  21
NUCLA          FAIR      21  12  68 CALM      30.12S
$$

COZ017>023-064>068-241800-
...SOUTHWEST COLORADO...

CITY           SKY/WX    TMP DP  RH WIND       PRES   REMARKS
DURANGO        FAIR      25   6  44 SW14      30.00S WCI  13
CORTEZ         FAIR      25   7  46 N8        30.10S WCI  16
PAGOSA SPRINGS FAIR      21   3  45 SW6       29.97R WCI  14
TELLURIDE      NOT AVBL
WOLF CREEK PAS CLOUDY     0  -2  92 S13G22    29.83R WCI -18
$$

COZ009-010-012-014-032>034-037-058>063-241800-
...CENTRAL COLORADO...

CITY           SKY/WX    TMP DP  RH WIND       PRES   REMARKS
ASPEN          LGT SNOW  16   6  65 NW3       29.90R
BUENA VISTA    FAIR      23  -8  25 W22G33    29.78F WCI   7
COPPER MTN     CLOUDY     0  -8  71 MISG      29.66R
BERTHOUD PASS  SNOW      -9 -20  59 N33G45    29.57R VSB 1/4 WCI -40
COTTONWOOD PAS FAIR      18  -4  38 W38G52    29.69S WCI  -4
GUNNISON       FAIR      18   3  52 W21G29    29.92R WCI   1
GRANBY         CLOUDY    11  -3  53 W13G20    29.88R WCI  -3
KREMMLING      CLOUDY    21   1  42 W9G16     29.92F WCI  11
LEADVILLE      CLOUDY     6  -5  60 NW10G17   29.76R WCI  -9
MONARCH PASS   CLOUDY     0  -6  78 W41       29.78R WCI -30
SALIDA         FAIR      24  -2  32 W23G36    29.90S WCI   9
SUNLIGHT       SNOW     N/A N/A N/A SW9G20    29.83F VSB 1/4
WILKERSON PASS FAIR       5  -8  56 W12G21    29.65S WCI -11
$$

COZ069>075-241800-
...SAN LUIS VALLEY/SANGRE DE CRISTO MOUNTAINS...

CITY           SKY/WX    TMP DP  RH WIND       PRES   REMARKS
ALAMOSA        FAIR      26 -13  17 NW18G25   29.88R WCI  13
DEL NORTE      FAIR      22  -6  29 W18G28    29.88S WCI   7
LA VETA PASS   FAIR      16  -9  32 SW14G26   29.85R WCI   1
SAGUACHE       FAIR      21   0  39 NW29G41   29.86R WCI   3
$$

COZ035-036-038>040-241800-
...NORTHERN COLORADO FRONT RANGE...

CITY           SKY/WX    TMP DP  RH WIND       PRES   REMARKS
DENVER INTL AP FAIR      30   2  30 W25G36    29.75F WCI  16
AURORA         MOSUNNY   29   1  30 W20G28    29.76F WCI  16
FRONT RANGE AP MOSUNNY   32   1  27 W25G38    29.77F WCI  19
ERIE MUNI ARPT FAIR      31  -1  26 W9        29.82F WCI  23
BOULDER MUN AP FAIR      32   0  25 S5        29.74F WCI  27
CENTENNIAL     FAIR      27   1  32 NW14      29.75F WCI  16
BROOMFIELD     MOSUNNY   27   1  33 W28G35    29.75F WCI  11
FORT COLLINS   FAIR      26  21  81 SE6       29.76F WCI  19
LONGMONT       FAIR      33   4  29 W17G25    29.77F HAZE    WCI  22
$$

COZ041-046-047-076>085-087-088-241800-
...PIKES PEAK/PALMER DIVIDE AND SOUTHERN FOOTHILLS...

CITY           SKY/WX    TMP DP  RH WIND       PRES   REMARKS
COLO. SPRINGS  FAIR      31  -1  25 W20G26    29.76F WCI  19
A. F. ACADEMY  FAIR      29  -8  19 NW12G26   29.74F WCI  19
SCHRIEVER AFB  NOT AVBL
CHEYENNE MTN   FAIR      26  12  53 E12       29.68F WCI  16
ELLICOTT         N/A    N/A N/A N/A W7        29.75F
FALCON         FAIR      29  -5  22 MISG      29.75F
FORT CARSON    FAIR      32   6  33 W6        29.76F WCI  26
LIMON          FAIR      28  17  63 NW17      29.77S WCI  16
MONUMENT HILL  FAIR      27  -4  26 W26G36    29.74F WCI  11
CANON CITY     MOSUNNY   37   1  22 W13G30    29.80R
WALSENBURG     NOT AVBL
TRINIDAD       FAIR      36  -5  17 NW21G29   29.82R
$$

COZ042>045-048>051-090-091-241800-
...NORTHEAST COLORADO...

CITY           SKY/WX    TMP DP  RH WIND       PRES   REMARKS
GREELEY ARPT   FAIR      29  21  72 CALM      29.79F
AKRON          FAIR      32  13  45 W22G30    29.75F WCI  19
BURLINGTON     FAIR      33  23  66 NW23G29   29.78F WCI  21
WRAY           FAIR      34  25  69 NW21G28   29.78S WCI  22
YUMA           NOT AVBL
STERLING       FAIR      34   1  25 NW33G48   29.77F WCI  19
HOLYOKE        FAIR      34  16  47 NW16G32   29.77S WCI  23
FORT MORGAN    FAIR      32  15  50 W16G23    29.79F WCI  21
$$

COZ086-089-092>099-241800-
...SOUTHEAST COLORADO...

CITY           SKY/WX    TMP DP  RH WIND       PRES   REMARKS
PUEBLO         FAIR      38  16  40 W22G28    29.81F
LA JUNTA       FAIR      36  27  69 W10       29.84S
LAMAR          PTSUNNY   34  29  82 W15       29.82F WCI  24
SPRINGFIELD      N/A     31  29  92 NW22      29.81S WCI  18
$$




USA.gov is the U.S. government's official web portal to all federal, state and local government web resources and services.